CES7521 RKSS-ZSPD

Flight info

Callsign CES7521
Flight time 1h 43m
Altitude 241
Route BULTI2Z BULTI Y711 PONIK A593 LAMEN/K0841F280 A593 AKARA/K0841S0840 A593 PUD DCT
Aircraft A320/M-SDE2E3FGHIJ5LORVWXY/LB1

Departure

Time 2026-05-05 12:31
Airport Gimpo International Airport (RKSS)

Arrival

Time 2026-05-05 14:14
Airport Shanghai Pudong International Airport (ZSPD)
Time Latitude Longitude Altitude Speed Heading
2026-05-05 11:35 37.55771 126.80319 65 ft 0 kts 44°
2026-05-05 12:14 37.55770 126.80317 65 ft 2 kts 45°
2026-05-05 12:14 37.55759 126.80304 65 ft 2 kts 44°
2026-05-05 12:14 37.55748 126.80291 65 ft 2 kts 45°
2026-05-05 12:14 37.55738 126.80277 65 ft 2 kts 44°
2026-05-05 12:15 37.55727 126.80263 66 ft 2 kts 45°
2026-05-05 12:15 37.55716 126.80250 66 ft 2 kts 50°
2026-05-05 12:15 37.55709 126.80234 66 ft 2 kts 75°
2026-05-05 12:15 37.55707 126.80215 67 ft 2 kts 96°
2026-05-05 12:16 37.55711 126.80197 67 ft 2 kts 117°
2026-05-05 12:16 37.55717 126.80186 67 ft 0 kts 132°
2026-05-05 12:16 37.55722 126.80180 67 ft 0 kts 135°
2026-05-05 12:21 37.55711 126.80193 67 ft 4 kts 136°
2026-05-05 12:22 37.55678 126.80198 67 ft 0 kts 205°
2026-05-05 12:22 37.55660 126.80179 67 ft 3 kts 224°
2026-05-05 12:22 37.55658 126.80177 67 ft 2 kts 225°
2026-05-05 12:23 37.55618 126.80123 65 ft 13 kts 225°
2026-05-05 12:23 37.55600 126.80102 65 ft 0 kts 223°
2026-05-05 12:23 37.55590 126.80089 64 ft 8 kts 225°
2026-05-05 12:23 37.55573 126.80006 65 ft 10 kts 306°
2026-05-05 12:24 37.55621 126.79940 66 ft 10 kts 315°
2026-05-05 12:24 37.55672 126.79881 68 ft 9 kts 316°
2026-05-05 12:24 37.55720 126.79820 68 ft 9 kts 315°
2026-05-05 12:24 37.55768 126.79758 69 ft 12 kts 314°
2026-05-05 12:25 37.55871 126.79628 71 ft 23 kts 316°
2026-05-05 12:25 37.55973 126.79501 70 ft 15 kts 315°
2026-05-05 12:25 37.56051 126.79403 69 ft 13 kts 314°
2026-05-05 12:25 37.56108 126.79330 67 ft 12 kts 315°
2026-05-05 12:26 37.56174 126.79248 66 ft 14 kts 315°
2026-05-05 12:26 37.56250 126.79152 63 ft 16 kts 315°
2026-05-05 12:26 37.56333 126.79046 61 ft 17 kts 314°
2026-05-05 12:26 37.56420 126.78934 59 ft 18 kts 316°
2026-05-05 12:27 37.56515 126.78822 57 ft 18 kts 315°
2026-05-05 12:27 37.56609 126.78703 55 ft 19 kts 314°
2026-05-05 12:27 37.56706 126.78580 53 ft 20 kts 315°
2026-05-05 12:27 37.56807 126.78455 51 ft 20 kts 315°
2026-05-05 12:28 37.56907 126.78329 50 ft 20 kts 314°
2026-05-05 12:28 37.57005 126.78203 50 ft 19 kts 315°
2026-05-05 12:28 37.57103 126.78084 49 ft 19 kts 315°
2026-05-05 12:28 37.57158 126.78004 48 ft 11 kts 287°
2026-05-05 12:29 37.57132 126.77938 48 ft 0 kts 224°
2026-05-05 12:29 37.57132 126.77937 48 ft 0 kts 224°
2026-05-05 12:29 37.57068 126.77870 50 ft 14 kts 192°
2026-05-05 12:30 37.57020 126.77894 51 ft 0 kts 140°
2026-05-05 12:30 37.57012 126.77903 51 ft 13 kts 138°
2026-05-05 12:30 37.56760 126.78216 52 ft 87 kts 135°
2026-05-05 12:31 37.56170 126.78965 65 ft 148 kts 136°
2026-05-05 12:31 37.55369 126.79979 301 ft 174 kts 136°
2026-05-05 12:31 37.54507 126.81071 883 ft 178 kts 137°
2026-05-05 12:31 37.53640 126.82170 1487 ft 179 kts 138°
2026-05-05 12:32 37.52749 126.83293 2018 ft 186 kts 139°
2026-05-05 12:32 37.51792 126.84485 2334 ft 206 kts 139°
2026-05-05 12:32 37.50729 126.85796 2751 ft 223 kts 142°
2026-05-05 12:32 37.49388 126.86907 3198 ft 236 kts 160°
2026-05-05 12:33 37.47830 126.87601 3802 ft 243 kts 165°
2026-05-05 12:33 37.46211 126.88233 4468 ft 250 kts 166°
2026-05-05 12:33 37.44497 126.88895 4918 ft 267 kts 166°
2026-05-05 12:33 37.42665 126.89611 5348 ft 284 kts 165°
2026-05-05 12:34 37.40736 126.90376 5808 ft 290 kts 165°
2026-05-05 12:34 37.38808 126.91148 5995 ft 292 kts 163°
2026-05-05 12:34 37.36908 126.92152 6348 ft 302 kts 154°
2026-05-05 12:34 37.35123 126.93504 7135 ft 304 kts 148°
2026-05-05 12:35 37.33355 126.95011 7675 ft 305 kts 147°
2026-05-05 12:35 37.31604 126.96536 7951 ft 306 kts 147°
2026-05-05 12:35 37.29873 126.98041 7994 ft 306 kts 147°
2026-05-05 12:35 37.28102 126.99573 8000 ft 305 kts 148°
2026-05-05 12:36 37.26365 127.01067 7996 ft 305 kts 148°
2026-05-05 12:36 37.24599 127.02523 7996 ft 304 kts 155°
2026-05-05 12:36 37.22533 127.03152 8118 ft 309 kts 185°
2026-05-05 12:36 37.20423 127.02538 8513 ft 320 kts 200°
2026-05-05 12:37 37.18273 127.01646 8922 ft 334 kts 199°
2026-05-05 12:37 37.16033 127.00763 9557 ft 340 kts 199°
2026-05-05 12:37 37.13743 126.99879 10249 ft 343 kts 198°
2026-05-05 12:37 37.11478 126.99010 10886 ft 347 kts 198°
2026-05-05 12:38 37.09159 126.98122 11502 ft 352 kts 198°
2026-05-05 12:38 37.06797 126.97217 12110 ft 356 kts 197°
2026-05-05 12:38 37.04429 126.96312 12696 ft 360 kts 197°
2026-05-05 12:38 37.02020 126.95393 13262 ft 364 kts 197°
2026-05-05 12:39 36.99581 126.94466 13794 ft 370 kts 196°
2026-05-05 12:39 36.97117 126.93531 14347 ft 374 kts 196°
2026-05-05 12:39 36.94586 126.92569 14938 ft 377 kts 196°
2026-05-05 12:39 36.92107 126.91548 15500 ft 381 kts 199°
2026-05-05 12:40 36.89577 126.90396 15921 ft 384 kts 199°
2026-05-05 12:40 36.87054 126.89246 16070 ft 385 kts 199°
2026-05-05 12:40 36.84533 126.88100 16109 ft 384 kts 199°
2026-05-05 12:40 36.82036 126.86964 16116 ft 384 kts 199°
2026-05-05 12:41 36.79519 126.85819 16090 ft 383 kts 199°
2026-05-05 12:41 36.77021 126.84682 16126 ft 384 kts 199°
2026-05-05 12:41 36.74490 126.83567 16284 ft 390 kts 196°
2026-05-05 12:41 36.71842 126.82842 16849 ft 391 kts 187°
2026-05-05 12:42 36.69117 126.82616 17444 ft 391 kts 179°
2026-05-05 12:42 36.66406 126.82688 17951 ft 394 kts 177°
2026-05-05 12:42 36.63680 126.82816 18435 ft 397 kts 177°
2026-05-05 12:42 36.60886 126.82947 18939 ft 400 kts 177°
2026-05-05 12:43 36.58122 126.83064 19422 ft 403 kts 178°
2026-05-05 12:43 36.55289 126.83179 19899 ft 406 kts 178°
2026-05-05 12:43 36.52453 126.83286 20356 ft 409 kts 178°
2026-05-05 12:43 36.49608 126.83392 20816 ft 412 kts 178°
2026-05-05 12:44 36.46740 126.83500 21266 ft 415 kts 178°
2026-05-05 12:44 36.43870 126.83609 21707 ft 417 kts 178°
2026-05-05 12:44 36.40933 126.83715 22170 ft 419 kts 179°
2026-05-05 12:44 36.38008 126.83673 22609 ft 422 kts 182°
2026-05-05 12:45 36.35103 126.83421 23023 ft 424 kts 185°
2026-05-05 12:45 36.32138 126.83096 23409 ft 427 kts 185°
2026-05-05 12:45 36.29172 126.82771 23781 ft 430 kts 185°
2026-05-05 12:45 36.26145 126.82442 24157 ft 433 kts 185°
2026-05-05 12:46 36.23160 126.82118 24538 ft 435 kts 185°
2026-05-05 12:46 36.20137 126.81792 24891 ft 437 kts 185°
2026-05-05 12:46 36.17097 126.81464 25252 ft 439 kts 186°
2026-05-05 12:46 36.14068 126.81135 25618 ft 440 kts 186°
2026-05-05 12:47 36.10982 126.80798 25966 ft 442 kts 186°
2026-05-05 12:47 36.07906 126.80461 26306 ft 444 kts 186°
2026-05-05 12:47 36.04863 126.80130 26626 ft 445 kts 186°
2026-05-05 12:47 36.01740 126.79791 26926 ft 447 kts 186°
2026-05-05 12:48 35.98669 126.79459 27215 ft 449 kts 186°
2026-05-05 12:48 35.95556 126.79123 27500 ft 451 kts 186°
2026-05-05 12:48 35.92389 126.78782 27777 ft 453 kts 186°
2026-05-05 12:48 35.89238 126.78442 28046 ft 455 kts 187°
2026-05-05 12:49 35.86116 126.78102 28298 ft 456 kts 187°
2026-05-05 12:49 35.82917 126.77755 28552 ft 458 kts 187°
2026-05-05 12:49 35.79745 126.77412 28820 ft 458 kts 187°
2026-05-05 12:49 35.76585 126.77070 29067 ft 459 kts 187°
2026-05-05 12:50 35.73383 126.76724 29304 ft 461 kts 187°
2026-05-05 12:50 35.70215 126.76382 29525 ft 461 kts 187°
2026-05-05 12:50 35.66985 126.76034 29751 ft 462 kts 187°
2026-05-05 12:50 35.63811 126.75692 29952 ft 463 kts 187°
2026-05-05 12:51 35.60605 126.75348 30144 ft 464 kts 187°
2026-05-05 12:51 35.57386 126.75002 30314 ft 465 kts 187°
2026-05-05 12:51 35.54129 126.74651 30464 ft 466 kts 187°
2026-05-05 12:51 35.50919 126.74307 30635 ft 467 kts 188°
2026-05-05 12:52 35.47711 126.73653 30754 ft 465 kts 199°
2026-05-05 12:52 35.44696 126.72290 30957 ft 461 kts 205°
2026-05-05 12:52 35.41748 126.70792 31133 ft 462 kts 205°
2026-05-05 12:52 35.38771 126.69265 31252 ft 463 kts 205°
2026-05-05 12:53 35.35798 126.67752 31397 ft 463 kts 205°
2026-05-05 12:53 35.32815 126.66247 31508 ft 464 kts 205°
2026-05-05 12:53 35.29842 126.64756 31618 ft 465 kts 205°
2026-05-05 12:53 35.26865 126.63270 31744 ft 465 kts 205°
2026-05-05 12:54 35.20866 126.60291 31940 ft 465 kts 205°
2026-05-05 12:54 35.17835 126.58790 32059 ft 465 kts 205°
2026-05-05 12:54 35.14864 126.57321 32205 ft 464 kts 205°
2026-05-05 12:55 35.11893 126.55853 32337 ft 463 kts 205°
2026-05-05 12:55 35.08897 126.54374 32476 ft 462 kts 205°
2026-05-05 12:55 35.05908 126.52898 32579 ft 461 kts 205°
2026-05-05 12:56 34.99977 126.49978 32801 ft 460 kts 205°
2026-05-05 12:56 34.97047 126.48537 32919 ft 459 kts 205°
2026-05-05 12:56 34.94070 126.47073 33026 ft 458 kts 205°
2026-05-05 12:56 34.91105 126.45616 33129 ft 458 kts 205°
2026-05-05 12:57 34.88166 126.44177 33240 ft 457 kts 205°
2026-05-05 12:57 34.82277 126.41309 33444 ft 455 kts 205°
2026-05-05 12:58 34.76414 126.38451 33639 ft 454 kts 205°
2026-05-05 12:58 34.70594 126.35609 33808 ft 452 kts 206°
2026-05-05 12:59 34.64773 126.32752 33970 ft 451 kts 205°
2026-05-05 12:59 34.58942 126.29885 34084 ft 450 kts 205°
2026-05-05 13:00 34.50292 126.25666 34091 ft 448 kts 205°
2026-05-05 13:01 34.38877 126.20125 34096 ft 441 kts 205°
2026-05-05 13:01 34.33174 126.17365 34098 ft 440 kts 206°
2026-05-05 13:02 34.27499 126.14623 34093 ft 440 kts 206°
2026-05-05 13:02 34.21787 126.11864 34098 ft 440 kts 205°
2026-05-05 13:03 34.16140 126.09142 34100 ft 439 kts 206°
2026-05-05 13:03 34.10461 126.06409 34095 ft 438 kts 206°
2026-05-05 13:04 34.04821 126.03698 34101 ft 437 kts 205°
2026-05-05 13:04 33.99168 126.00985 34098 ft 437 kts 205°
2026-05-05 13:05 33.93504 125.98270 34076 ft 437 kts 205°
2026-05-05 13:05 33.87880 125.95585 34094 ft 436 kts 205°
2026-05-05 13:06 33.82239 125.92907 34146 ft 435 kts 206°
2026-05-05 13:06 33.76643 125.90246 34106 ft 434 kts 206°
2026-05-05 13:07 33.71016 125.87568 34095 ft 433 kts 206°
2026-05-05 13:07 33.65420 125.84907 34095 ft 432 kts 206°
2026-05-05 13:08 33.59840 125.82256 34095 ft 431 kts 206°
2026-05-05 13:08 33.54270 125.79615 34092 ft 432 kts 206°
2026-05-05 13:09 33.48695 125.76971 34096 ft 432 kts 206°
2026-05-05 13:09 33.43085 125.74316 34091 ft 432 kts 206°
2026-05-05 13:10 33.37539 125.71698 34091 ft 430 kts 206°
2026-05-05 13:10 33.31970 125.69070 34091 ft 429 kts 206°
2026-05-05 13:11 33.26437 125.66462 34091 ft 429 kts 206°
2026-05-05 13:11 33.20888 125.63851 34091 ft 429 kts 206°
2026-05-05 13:12 33.15349 125.61249 34091 ft 427 kts 206°
2026-05-05 13:12 33.09823 125.58655 34100 ft 426 kts 206°
2026-05-05 13:13 33.04301 125.56067 34091 ft 426 kts 206°
2026-05-05 13:13 32.98826 125.53505 34098 ft 425 kts 206°
2026-05-05 13:14 32.93327 125.50934 34100 ft 425 kts 206°
2026-05-05 13:14 32.87790 125.48354 34100 ft 425 kts 206°
2026-05-05 13:15 32.82284 125.45804 34098 ft 424 kts 206°
2026-05-05 13:15 32.76817 125.43267 34103 ft 423 kts 207°
2026-05-05 13:16 32.71337 125.40723 34096 ft 422 kts 207°
2026-05-05 13:16 32.65872 125.38186 34101 ft 423 kts 207°
2026-05-05 13:17 32.60396 125.35648 34096 ft 422 kts 207°
2026-05-05 13:17 32.54931 125.33102 34101 ft 420 kts 206°
2026-05-05 13:18 32.49512 125.30573 34095 ft 420 kts 206°
2026-05-05 13:18 32.44045 125.28037 34098 ft 421 kts 206°
2026-05-05 13:19 32.38609 125.25526 34096 ft 420 kts 206°
2026-05-05 13:19 32.33183 125.23026 34096 ft 419 kts 206°
2026-05-05 13:20 32.27747 125.20526 34099 ft 419 kts 206°
2026-05-05 13:20 32.22337 125.18040 34097 ft 419 kts 206°
2026-05-05 13:21 32.16899 125.15547 34098 ft 418 kts 206°
2026-05-05 13:21 32.11492 125.13071 34096 ft 418 kts 206°
2026-05-05 13:22 32.06078 125.10599 34100 ft 416 kts 206°
2026-05-05 13:22 32.00672 125.08134 34098 ft 416 kts 206°
2026-05-05 13:23 31.95274 125.05673 34100 ft 415 kts 207°
2026-05-05 13:23 31.90162 125.02679 34066 ft 408 kts 218°
2026-05-05 13:24 31.87906 125.00695 33833 ft 405 kts 223°
2026-05-05 13:24 31.85869 124.98428 33694 ft 402 kts 229°
2026-05-05 13:24 31.84073 124.95913 33532 ft 402 kts 234°
2026-05-05 13:24 31.82537 124.93177 33130 ft 396 kts 240°
2026-05-05 13:25 31.81312 124.90326 32769 ft 388 kts 245°
2026-05-05 13:25 31.80382 124.87389 32407 ft 382 kts 251°
2026-05-05 13:25 31.79680 124.84419 32045 ft 376 kts 253°
2026-05-05 13:25 31.79023 124.81487 31680 ft 370 kts 253°
2026-05-05 13:26 31.78385 124.78607 31316 ft 365 kts 253°
2026-05-05 13:26 31.77754 124.75749 30953 ft 361 kts 253°
2026-05-05 13:26 31.77126 124.72894 30591 ft 361 kts 253°
2026-05-05 13:26 31.76496 124.70028 30221 ft 361 kts 253°
2026-05-05 13:27 31.75879 124.67207 29848 ft 360 kts 253°
2026-05-05 13:27 31.75252 124.64344 29461 ft 358 kts 253°
2026-05-05 13:27 31.74641 124.61556 29067 ft 356 kts 253°
2026-05-05 13:27 31.74027 124.58763 28680 ft 355 kts 254°
2026-05-05 13:28 31.73412 124.55966 28291 ft 355 kts 254°
2026-05-05 13:28 31.72796 124.53165 27907 ft 355 kts 254°
2026-05-05 13:28 31.72174 124.50337 27497 ft 355 kts 255°
2026-05-05 13:28 31.71567 124.47572 27105 ft 352 kts 255°
2026-05-05 13:29 31.70952 124.44782 26710 ft 351 kts 255°
2026-05-05 13:29 31.70343 124.42020 26322 ft 351 kts 255°
2026-05-05 13:29 31.69734 124.39264 26109 ft 350 kts 255°
2026-05-05 13:29 31.69120 124.36483 26082 ft 353 kts 255°
2026-05-05 13:30 31.68505 124.33696 26083 ft 353 kts 255°
2026-05-05 13:30 31.67893 124.30924 26084 ft 353 kts 255°
2026-05-05 13:30 31.67279 124.28133 26079 ft 354 kts 255°
2026-05-05 13:30 31.66662 124.25349 25897 ft 355 kts 255°
2026-05-05 13:31 31.66040 124.22545 25611 ft 353 kts 255°
2026-05-05 13:31 31.65428 124.19797 25141 ft 353 kts 255°
2026-05-05 13:31 31.64804 124.16998 24642 ft 352 kts 255°
2026-05-05 13:31 31.64191 124.14253 24162 ft 352 kts 255°
2026-05-05 13:32 31.63573 124.11485 23680 ft 351 kts 256°
2026-05-05 13:32 31.62953 124.08715 23189 ft 351 kts 256°
2026-05-05 13:32 31.62335 124.05957 22692 ft 350 kts 256°
2026-05-05 13:32 31.61726 124.03234 22203 ft 350 kts 256°
2026-05-05 13:33 31.61107 124.00474 21702 ft 349 kts 256°
2026-05-05 13:33 31.60500 123.97722 21203 ft 348 kts 257°
2026-05-05 13:33 31.59906 123.94988 20707 ft 348 kts 257°
2026-05-05 13:33 31.59309 123.92238 20209 ft 347 kts 257°
2026-05-05 13:34 31.58714 123.89507 19714 ft 346 kts 257°
2026-05-05 13:34 31.58126 123.86810 19225 ft 346 kts 257°
2026-05-05 13:34 31.57533 123.84103 18727 ft 345 kts 257°
2026-05-05 13:34 31.56934 123.81370 18233 ft 344 kts 257°
2026-05-05 13:35 31.56340 123.78663 17740 ft 343 kts 257°
2026-05-05 13:35 31.55750 123.75972 17255 ft 342 kts 257°
2026-05-05 13:35 31.55162 123.73297 16766 ft 341 kts 257°
2026-05-05 13:35 31.54571 123.70615 16277 ft 340 kts 257°
2026-05-05 13:36 31.53985 123.67959 15794 ft 339 kts 257°
2026-05-05 13:36 31.53389 123.65262 15311 ft 338 kts 257°
2026-05-05 13:36 31.52809 123.62640 15081 ft 329 kts 257°
2026-05-05 13:36 31.52246 123.60104 15071 ft 320 kts 257°
2026-05-05 13:37 31.51686 123.57583 15064 ft 321 kts 257°
2026-05-05 13:37 31.51122 123.55040 15065 ft 321 kts 257°
2026-05-05 13:37 31.50567 123.52537 15060 ft 321 kts 257°
2026-05-05 13:37 31.50021 123.50024 15059 ft 320 kts 258°
2026-05-05 13:38 31.49531 123.47472 15070 ft 320 kts 259°
2026-05-05 13:38 31.49050 123.44919 15069 ft 320 kts 259°
2026-05-05 13:38 31.48567 123.42371 15072 ft 320 kts 259°
2026-05-05 13:38 31.48084 123.39821 15067 ft 320 kts 259°
2026-05-05 13:39 31.47605 123.37298 15067 ft 320 kts 259°
2026-05-05 13:39 31.47122 123.34754 15070 ft 320 kts 258°
2026-05-05 13:39 31.46642 123.32222 15065 ft 320 kts 258°
2026-05-05 13:39 31.46155 123.29652 15066 ft 321 kts 258°
2026-05-05 13:40 31.45671 123.27110 15066 ft 320 kts 258°
2026-05-05 13:40 31.45186 123.24560 15063 ft 320 kts 258°
2026-05-05 13:40 31.44700 123.22014 15065 ft 321 kts 258°
2026-05-05 13:40 31.44218 123.19492 15069 ft 320 kts 258°
2026-05-05 13:41 31.43729 123.16935 15065 ft 321 kts 258°
2026-05-05 13:41 31.43239 123.14385 15063 ft 320 kts 258°
2026-05-05 13:41 31.42755 123.11865 15062 ft 320 kts 258°
2026-05-05 13:41 31.42262 123.09306 15065 ft 320 kts 258°
2026-05-05 13:42 31.41777 123.06786 15065 ft 320 kts 258°
2026-05-05 13:42 31.41285 123.04233 15066 ft 321 kts 258°
2026-05-05 13:42 31.40796 123.01699 15064 ft 320 kts 258°
2026-05-05 13:42 31.40305 122.99159 15063 ft 320 kts 258°
2026-05-05 13:43 31.39816 122.96635 15062 ft 321 kts 258°
2026-05-05 13:43 31.39325 122.94100 15060 ft 321 kts 258°
2026-05-05 13:43 31.38830 122.91548 15062 ft 321 kts 258°
2026-05-05 13:43 31.38334 122.88996 15064 ft 321 kts 258°
2026-05-05 13:44 31.37845 122.86481 15062 ft 321 kts 258°
2026-05-05 13:44 31.37348 122.83923 15063 ft 321 kts 258°
2026-05-05 13:44 31.36850 122.81377 15058 ft 321 kts 257°
2026-05-05 13:44 31.36243 122.78873 15054 ft 322 kts 253°
2026-05-05 13:45 31.35454 122.76430 15052 ft 322 kts 248°
2026-05-05 13:45 31.34482 122.74058 15047 ft 323 kts 244°
2026-05-05 13:45 31.33411 122.71755 15052 ft 323 kts 243°
2026-05-05 13:45 31.32329 122.69456 15057 ft 323 kts 243°
2026-05-05 13:46 31.31246 122.67161 15055 ft 323 kts 243°
2026-05-05 13:46 31.30169 122.64875 15054 ft 323 kts 243°
2026-05-05 13:46 31.29090 122.62584 15049 ft 323 kts 243°
2026-05-05 13:46 31.28012 122.60294 15049 ft 323 kts 243°
2026-05-05 13:47 31.26924 122.57983 15046 ft 323 kts 243°
2026-05-05 13:47 31.25849 122.55699 15049 ft 323 kts 243°
2026-05-05 13:47 31.24762 122.53391 15046 ft 323 kts 243°
2026-05-05 13:47 31.23676 122.51089 15043 ft 323 kts 243°
2026-05-05 13:48 31.22592 122.48792 15046 ft 323 kts 243°
2026-05-05 13:48 31.21504 122.46486 15046 ft 324 kts 243°
2026-05-05 13:48 31.20422 122.44196 15004 ft 319 kts 243°
2026-05-05 13:48 31.19348 122.41925 14384 ft 326 kts 243°
2026-05-05 13:49 31.18251 122.39599 13690 ft 333 kts 243°
2026-05-05 13:49 31.17137 122.37242 13138 ft 335 kts 243°
2026-05-05 13:49 31.15998 122.34837 12574 ft 337 kts 242°
2026-05-05 13:49 31.14878 122.32465 12021 ft 339 kts 242°
2026-05-05 13:50 31.13734 122.30040 11458 ft 340 kts 242°
2026-05-05 13:50 31.12594 122.27633 10900 ft 342 kts 242°
2026-05-05 13:50 31.11435 122.25188 10338 ft 343 kts 242°
2026-05-05 13:50 31.10288 122.22772 9776 ft 344 kts 241°
2026-05-05 13:51 31.09279 122.20279 9190 ft 344 kts 255°
2026-05-05 13:51 31.09193 122.17528 8601 ft 344 kts 283°
2026-05-05 13:51 31.10245 122.15037 8137 ft 339 kts 312°
2026-05-05 13:51 31.12110 122.13528 8012 ft 324 kts 340°
2026-05-05 13:52 31.14246 122.13037 7997 ft 306 kts
2026-05-05 13:52 31.16256 122.13501 7994 ft 288 kts 26°
2026-05-05 13:52 31.17799 122.14852 8002 ft 270 kts 47°
2026-05-05 13:52 31.19056 122.16407 7999 ft 255 kts 46°
2026-05-05 13:53 31.20260 122.17816 7994 ft 240 kts 44°
2026-05-05 13:53 31.21474 122.19159 8001 ft 238 kts 43°
2026-05-05 13:53 31.22698 122.20464 8004 ft 237 kts 40°
2026-05-05 13:53 31.24025 122.21603 8005 ft 237 kts 31°
2026-05-05 13:54 31.25316 122.22401 8006 ft 236 kts 26°
2026-05-05 13:54 31.26824 122.23225 8004 ft 236 kts 25°
2026-05-05 13:54 31.28321 122.24032 8008 ft 237 kts 25°
2026-05-05 13:54 31.29800 122.24831 8008 ft 237 kts 25°
2026-05-05 13:55 31.31302 122.25647 8005 ft 237 kts 25°
2026-05-05 13:55 31.32803 122.26457 8005 ft 237 kts 22°
2026-05-05 13:55 31.34377 122.27062 8007 ft 237 kts 13°
2026-05-05 13:55 31.36013 122.27411 8011 ft 238 kts
2026-05-05 13:56 31.37631 122.27689 7956 ft 235 kts
2026-05-05 13:56 31.39244 122.27957 7646 ft 235 kts
2026-05-05 13:56 31.40865 122.28232 7304 ft 235 kts
2026-05-05 13:56 31.42493 122.28346 6975 ft 235 kts 348°
2026-05-05 13:57 31.43967 122.27547 6681 ft 233 kts 317°
2026-05-05 13:57 31.44888 122.26051 6383 ft 231 kts 289°
2026-05-05 13:57 31.45130 122.24183 6048 ft 231 kts 269°
2026-05-05 13:57 31.45110 122.22324 5697 ft 232 kts 268°
2026-05-05 13:58 31.45084 122.20431 5376 ft 232 kts 268°
2026-05-05 13:58 31.45067 122.18556 5071 ft 231 kts 268°
2026-05-05 13:58 31.45057 122.16681 4833 ft 228 kts 268°
2026-05-05 13:58 31.45052 122.14871 4790 ft 214 kts 268°
2026-05-05 13:59 31.45047 122.11593 4782 ft 198 kts 268°
2026-05-05 13:59 31.45044 122.09985 4786 ft 198 kts 268°
2026-05-05 14:00 31.45040 122.06764 4793 ft 198 kts 268°
2026-05-05 14:00 31.45040 122.05692 4793 ft 198 kts 268°
2026-05-05 14:00 31.45039 122.03535 4793 ft 198 kts 268°
2026-05-05 14:00 31.45038 122.01923 4792 ft 198 kts 268°
2026-05-05 14:01 31.45037 122.00318 4792 ft 198 kts 268°
2026-05-05 14:01 31.45036 121.98703 4793 ft 199 kts 268°
2026-05-05 14:01 31.45036 121.97071 4793 ft 199 kts 268°
2026-05-05 14:01 31.45034 121.95455 4883 ft 200 kts 268°
2026-05-05 14:02 31.45033 121.93837 4824 ft 199 kts 268°
2026-05-05 14:02 31.45032 121.92223 4802 ft 199 kts 268°
2026-05-05 14:02 31.45030 121.90601 4789 ft 198 kts 268°
2026-05-05 14:02 31.45028 121.88995 4786 ft 198 kts 268°
2026-05-05 14:03 31.45025 121.87380 4790 ft 198 kts 268°
2026-05-05 14:03 31.45022 121.85772 4789 ft 197 kts 268°
2026-05-05 14:03 31.45019 121.84159 4788 ft 198 kts 268°
2026-05-05 14:03 31.45136 121.82575 4775 ft 199 kts 285°
2026-05-05 14:04 31.45808 121.81138 4779 ft 201 kts 312°
2026-05-05 14:04 31.46930 121.80203 4777 ft 201 kts 339°
2026-05-05 14:04 31.48296 121.79927 4778 ft 200 kts
2026-05-05 14:04 31.49618 121.80363 4781 ft 197 kts 31°
2026-05-05 14:05 31.50644 121.81408 4782 ft 194 kts 56°
2026-05-05 14:05 31.51101 121.82822 4749 ft 180 kts 93°
2026-05-05 14:05 31.50691 121.84106 4749 ft 168 kts 136°
2026-05-05 14:05 31.49658 121.84672 4773 ft 168 kts 178°
2026-05-05 14:06 31.48572 121.84254 4786 ft 170 kts 215°
2026-05-05 14:06 31.47682 121.83339 4622 ft 168 kts 219°
2026-05-05 14:06 31.46753 121.82483 4206 ft 173 kts 211°
2026-05-05 14:06 31.45649 121.81820 3764 ft 186 kts 198°
2026-05-05 14:07 31.44368 121.81455 3568 ft 192 kts 187°
2026-05-05 14:07 31.43053 121.81191 3441 ft 193 kts 191°
2026-05-05 14:07 31.41753 121.80737 3310 ft 194 kts 198°
2026-05-05 14:07 31.40513 121.80112 3128 ft 194 kts 203°
2026-05-05 14:08 31.39330 121.79392 2932 ft 193 kts 206°
2026-05-05 14:08 31.38157 121.78609 2744 ft 191 kts 207°
2026-05-05 14:08 31.37033 121.77823 2711 ft 190 kts 208°
2026-05-05 14:08 31.35891 121.77008 2703 ft 190 kts 208°
2026-05-05 14:09 31.34768 121.76202 2699 ft 190 kts 208°
2026-05-05 14:09 31.33605 121.75456 2684 ft 187 kts 195°
2026-05-05 14:09 31.32330 121.75426 2681 ft 184 kts 166°
2026-05-05 14:09 31.31110 121.75882 2696 ft 185 kts 162°
2026-05-05 14:10 31.29915 121.76353 2683 ft 175 kts 162°
2026-05-05 14:10 31.28830 121.76778 2688 ft 149 kts 162°
2026-05-05 14:10 31.27888 121.77141 2670 ft 139 kts 162°
2026-05-05 14:10 31.26970 121.77486 2688 ft 139 kts 162°
2026-05-05 14:11 31.26049 121.77831 2694 ft 138 kts 162°
2026-05-05 14:11 31.25125 121.78179 2698 ft 138 kts 162°
2026-05-05 14:11 31.24202 121.78527 2673 ft 140 kts 162°
2026-05-05 14:11 31.23287 121.78907 2300 ft 138 kts 161°
2026-05-05 14:12 31.22400 121.79283 2112 ft 135 kts 160°
2026-05-05 14:12 31.21535 121.79682 1802 ft 134 kts 161°
2026-05-05 14:12 31.20652 121.80023 1376 ft 134 kts 164°
2026-05-05 14:12 31.19769 121.80303 1065 ft 132 kts 167°
2026-05-05 14:13 31.18870 121.80573 849 ft 134 kts 165°
2026-05-05 14:13 31.17966 121.80890 575 ft 136 kts 162°
2026-05-05 14:13 31.17057 121.81240 325 ft 136 kts 163°
2026-05-05 14:13 31.16152 121.81570 140 ft 138 kts 163°
2026-05-05 14:14 31.15231 121.81911 49 ft 139 kts 162°
2026-05-05 14:14 31.14396 121.82233 21 ft 91 kts 162°
2026-05-05 14:14 31.14024 121.82308 21 ft 25 kts 184°
2026-05-05 14:14 31.13959 121.82295 21 ft 0 kts 191°
2026-05-05 14:16 31.13953 121.82295 21 ft 7 kts 191°
2026-05-05 14:16 31.13852 121.82275 21 ft 16 kts 188°
2026-05-05 14:16 31.13742 121.82274 21 ft 15 kts 172°
2026-05-05 14:17 31.13687 121.82276 21 ft 0 kts 199°
2026-05-05 14:17 31.13675 121.82271 21 ft 12 kts 205°
2026-05-05 14:17 31.13619 121.82103 21 ft 20 kts 252°
2026-05-05 14:18 31.13591 121.81992 21 ft 34 kts 252°
2026-05-05 14:18 31.13552 121.81844 21 ft 0 kts 253°
2026-05-05 14:19 31.13553 121.81844 21 ft 0 kts 307°
2026-05-05 14:19 31.13553 121.81843 21 ft 0 kts 315°
2026-05-05 14:19 31.13611 121.81819 21 ft 17 kts 344°
2026-05-05 14:20 31.13732 121.81774 21 ft 15 kts 340°
2026-05-05 14:20 31.13755 121.81704 21 ft 9 kts 252°
2026-05-05 14:20 31.13731 121.81622 21 ft 5 kts 253°
2026-05-05 14:20 31.13730 121.81620 21 ft 0 kts 253°
2026-05-05 14:21 31.13728 121.81612 21 ft 3 kts 253°
2026-05-05 14:21 31.13717 121.81570 21 ft 7 kts 253°
2026-05-05 14:21 31.13696 121.81500 21 ft 11 kts 247°
2026-05-05 14:21 31.13667 121.81405 21 ft 12 kts 252°
2026-05-05 14:22 31.13660 121.81380 21 ft 0 kts 252°
2026-05-05 14:22 31.13658 121.81374 21 ft 0 kts 248°
2026-05-05 14:22 31.13658 121.81373 21 ft 0 kts 253°